QPF
0.06 0.03 0.01 0.00 0.00 0.00 0.00 0.00 0.00 0.00 0.00 0.00 0.00 0.00 0.00 0.00 0.00 0.00 0.00 0.00 0.00 0.00 0.00 0.00 0.00 0.00 0.00 0.00 0.00 0.00 0.00 0.00 0.00 0.00 0.00 0.00 0.00 0.00
0.04 0.02 0.00 0.00 0.00 0.00 0.00 0.00 0.00 0.00 0.00 0.00 0.00 0.00 0.00 0.00 0.00 0.00 0.00 0.00 0.00 0.00 0.00 0.00 0.00 0.00 0.00 0.00 0.00 0.00 0.00 0.00 0.00 0.00 0.00 0.00 0.00 0.00
0.01 0.00 0.00 0.00 0.00 0.00 0.00 0.00 0.00 0.00 0.00 0.00 0.00 0.00 0.00 0.00 0.00 0.00 0.00 0.00 0.00 0.00 0.00 0.00 0.00 0.00 0.00 0.00 0.00 0.00 0.00 0.00 0.00 0.00 0.00 0.00 0.00 0.00
0.00 0.00 0.00 0.00 0.00 0.00 0.00 0.00 0.00 0.00 0.00 0.00 0.00 0.00 0.00 0.00 0.00 0.00 0.00 0.00 0.00 0.00 0.00 0.00 0.00 0.00 0.00 0.00 0.00 0.00 0.00 0.00 0.00 0.00 0.00 0.00 0.00 0.00
0.00 0.00 0.00 0.00 0.00 0.00 0.00 0.00 0.00 0.00 0.00 0.00 0.00 0.00 0.00 0.00 0.00 0.00 0.00 0.00 0.00 0.00 0.00 0.00 0.00 0.00 0.00 0.00 0.00 0.00 0.00 0.00 0.00 0.00 0.00 0.00 0.00 0.00
0.02 0.01 0.00 0.00 0.00 0.00 0.00 0.00 0.00 0.00 0.00 0.00 0.00 0.00 0.00 0.00 0.00 0.00 0.00 0.00 0.00 0.00 0.00 0.00 0.00 0.00 0.00 0.00 0.00 0.00 0.00 0.00 0.00 0.00 0.00 0.00 0.00 0.00
0.01 0.03 0.03 0.02 0.01 0.00 0.00 0.00 0.00 0.00 0.00 0.00 0.00 0.00 0.00 0.00 0.00 0.00 0.00 0.00 0.00 0.00 0.00 0.00 0.00 0.00 0.00 0.00 0.00 0.00 0.00 0.00 0.00 0.00 0.00 0.00 0.00 0.00
0.01 0.00 0.01 0.05 0.02 0.00 0.00 0.00 0.00 0.00 0.00 0.00 0.00 0.00 0.00 0.00 0.00 0.00 0.00 0.00 0.00 0.00 0.00 0.00 0.00 0.00 0.00 0.00 0.00 0.00 0.00 0.00 0.00 0.00 0.00 0.00 0.00 0.00
0.02 0.01 0.00 0.00 0.00 0.00 0.00 0.00 0.00 0.00 0.00 0.00 0.00 0.00 0.00 0.00 0.00 0.00 0.00 0.00 0.00 0.00 0.00 0.00 0.00 0.00 0.00 0.00 0.00 0.00 0.00 0.00 0.00 0.00 0.00 0.00 0.00 0.00
0.02 0.00 0.01 0.00 0.00 0.01 0.00 0.00 0.00 0.00 0.00 0.00 0.00 0.00 0.00 0.00 0.00 0.00 0.00 0.00 0.00 0.00 0.00 0.00 0.00 0.00 0.00 0.00 0.00 0.00 0.00 0.00 0.00 0.00 0.00 0.00 0.00 0.00
0.01 0.00 0.01 0.01 0.01 0.02 0.02 0.01 0.00 0.00 0.00 0.00 0.00 0.00 0.00 0.00 0.00 0.00 0.00 0.00 0.00 0.00 0.00 0.00 0.00 0.00 0.00 0.00 0.00 0.00 0.00 0.00 0.00 0.00 0.00 0.00 0.00 0.00
0.01 0.00 0.04 0.03 0.03 0.03 0.02 0.00 0.00 0.00 0.00 0.00 0.00 0.00 0.00 0.00 0.00 0.00 0.00 0.00 0.00 0.00 0.00 0.00 0.00 0.00 0.00 0.00 0.00 0.00 0.00 0.00 0.00 0.00 0.00 0.00 0.00 0.00
0.00 0.00 0.00 0.02 0.03 0.04 0.03 0.01 0.01 0.00 0.00 0.00 0.00 0.00 0.00 0.00 0.00 0.00 0.00 0.00 0.00 0.00 0.00 0.00 0.00 0.00 0.00 0.00 0.00 0.00 0.00 0.00 0.00 0.00 0.00 0.00 0.00 0.00
0.00 0.00 0.00 0.00 0.00 0.01 0.03 0.02 0.02 0.02 0.00 0.00 0.00 0.00 0.00 0.00 0.00 0.00 0.00 0.00 0.00 0.00 0.00 0.00 0.00 0.00 0.00 0.00 0.00 0.00 0.00 0.00 0.00 0.00 0.00 0.00 0.00 0.00
0.00 0.00 0.00 0.00 0.00 0.00 0.01 0.02 0.01 0.00 0.00 0.00 0.00 0.00 0.00 0.00 0.00 0.00 0.00 0.00 0.00 0.00 0.00 0.00 0.00 0.00 0.00 0.00 0.00 0.00 0.00 0.00 0.00 0.00 0.00 0.00 0.00 0.00
0.02 0.01 0.01 0.02 0.04 0.03 0.02 0.01 0.00 0.00 0.00 0.00 0.00 0.00 0.00 0.00 0.00 0.00 0.00 0.00 0.00 0.00 0.00 0.00 0.00 0.00 0.00 0.00 0.00 0.00 0.00 0.00 0.00 0.00 0.00 0.00 0.00 0.00
0.01 0.00 0.02 0.02 0.03 0.02 0.01 0.00 0.00 0.00 0.01 0.00 0.00 0.00 0.00 0.00 0.00 0.00 0.00 0.00 0.00 0.00 0.00 0.00 0.00 0.00 0.00 0.00 0.00 0.00 0.00 0.00 0.00 0.00 0.00 0.00 0.00 0.00
0.01 0.00 0.01 0.01 0.00 0.00 0.00 0.00 0.00 0.00 0.00 0.00 0.00 0.00 0.00 0.00 0.00 0.00 0.00 0.00 0.00 0.00 0.00 0.00 0.00 0.00 0.00 0.00 0.00 0.00 0.00 0.00 0.00 0.00 0.00 0.00 0.00 0.00
0.02 0.00 0.01 0.01 0.00 0.00 0.00 0.00 0.00 0.00 0.00 0.00 0.00 0.00 0.00 0.00 0.00 0.00 0.00 0.00 0.00 0.00 0.00 0.00 0.00 0.00 0.00 0.00 0.00 0.00 0.00 0.00 0.00 0.00 0.00 0.00 0.00 0.00
0.00 0.00 0.01 0.01 0.00 0.00 0.00 0.00 0.00 0.00 0.00 0.00 0.00 0.00 0.00 0.00 0.00 0.00 0.00 0.00 0.00 0.00 0.00 0.00 0.00 0.00 0.00 0.00 0.00 0.00 0.00 0.00 0.00 0.00 0.00 0.00 0.00 0.00
0.00 0.00 0.01 0.01 0.01 0.00 0.00 0.00 0.00 0.00 0.00 0.00 0.00 0.00 0.00 0.00 0.00 0.00 0.00 0.00 0.00 0.00 0.00 0.00 0.00 0.00 0.00 0.00 0.00 0.00 0.00 0.00 0.00 0.00 0.00 0.00 0.00 0.00
0.00 0.00 0.00 0.01 0.01 0.01 0.00 0.01 0.01 0.03 0.03 0.01 0.01 0.01 0.01 0.01 0.01 0.00 0.00 0.00 0.00 0.00 0.00 0.00 0.00 0.00 0.00 0.00 0.00 0.00 0.00 0.00 0.00 0.00 0.00 0.00 0.00 0.00
0.00 0.00 0.00 0.02 0.02 0.02 0.02 0.02 0.03 0.03 0.03 0.03 0.04 0.04 0.04 0.04 0.02 0.01 0.00 0.00 0.00 0.00 0.00 0.00 0.00 0.00 0.00 0.00 0.00 0.00 0.00 0.00 0.00 0.00 0.00 0.00 0.00 0.00
MSLP
1018.24 1019.25 1019.86 1020.25 1020.78 1021.02 1020.98 1021.42 1022.66 1025.22 1025.39 1024.87 1025.34 1025.55 1025.77 1026.04 1026.44 1026.89 1027.25 1027.53 1027.70 1027.70 1027.94 1027.99 1028.23 1028.13 1028.24 1028.10 1028.06 1027.92 1027.81 1027.45 1027.18 1026.86 1026.44 1025.83 1025.23 1024.55
1017.40 1018.69 1019.50 1019.87 1020.70 1020.80 1020.73 1021.11 1021.84 1023.05 1024.02 1024.54 1025.13 1025.47 1025.60 1025.56 1026.20 1026.81 1026.82 1027.36 1027.26 1027.47 1027.79 1027.93 1027.91 1027.90 1028.08 1028.05 1027.92 1027.76 1027.49 1027.24 1026.95 1026.69 1026.43 1025.60 1025.08 1024.44
1016.97 1017.88 1018.63 1019.25 1020.21 1021.08 1020.99 1021.41 1021.78 1022.03 1023.16 1024.68 1024.94 1025.44 1025.76 1025.69 1026.25 1026.66 1026.64 1027.38 1027.16 1027.30 1027.49 1027.76 1027.74 1027.48 1027.53 1027.59 1027.70 1027.58 1027.34 1026.96 1026.84 1026.55 1026.37 1025.58 1025.01 1024.34
1015.65 1017.03 1017.82 1018.45 1019.11 1020.11 1020.70 1021.31 1021.44 1021.87 1022.52 1024.15 1024.87 1025.38 1025.25 1026.25 1026.27 1026.44 1026.37 1027.26 1026.98 1027.18 1027.36 1027.47 1027.53 1027.22 1027.09 1027.18 1027.25 1027.32 1027.32 1026.93 1026.85 1026.46 1026.43 1025.62 1024.95 1024.32
1014.92 1015.61 1016.75 1017.55 1018.35 1019.37 1020.07 1020.67 1021.12 1021.99 1022.41 1022.93 1024.66 1025.15 1025.23 1026.47 1026.26 1026.39 1026.70 1027.02 1026.86 1026.90 1027.09 1027.16 1027.05 1026.95 1026.92 1026.87 1026.77 1026.94 1027.19 1026.85 1026.55 1026.44 1026.21 1025.44 1025.10 1024.44
1014.25 1014.61 1015.80 1016.59 1017.46 1018.28 1019.20 1019.84 1020.65 1021.69 1022.15 1022.95 1023.80 1024.61 1025.05 1025.70 1024.83 1026.61 1026.93 1026.71 1026.82 1026.69 1027.08 1026.91 1026.80 1026.86 1026.77 1026.65 1026.63 1026.81 1026.91 1026.79 1026.34 1026.40 1025.95 1025.45 1024.81 1024.15
1013.61 1014.33 1015.25 1015.82 1016.74 1017.15 1018.09 1019.09 1019.92 1020.97 1021.64 1022.83 1023.85 1023.78 1024.64 1025.19 1025.05 1025.62 1026.04 1026.56 1026.74 1027.06 1027.13 1026.95 1027.10 1027.00 1026.75 1026.74 1026.78 1026.60 1026.80 1026.29 1026.54 1026.03 1025.63 1025.24 1024.39 1023.71
1012.82 1014.11 1014.58 1015.63 1016.53 1016.84 1017.46 1018.04 1018.46 1019.75 1020.69 1021.85 1022.63 1023.15 1023.66 1023.86 1024.07 1024.55 1025.62 1026.43 1027.03 1026.90 1026.97 1026.83 1026.91 1026.95 1026.81 1026.91 1026.62 1026.73 1026.44 1026.59 1026.50 1025.98 1025.34 1024.75 1024.15 1023.28
1012.05 1013.18 1013.98 1014.83 1015.67 1016.49 1017.13 1017.48 1018.10 1018.89 1019.03 1020.08 1021.11 1021.64 1022.16 1022.50 1022.48 1023.78 1024.81 1025.61 1026.03 1026.84 1026.69 1026.93 1027.08 1026.92 1026.74 1026.79 1026.91 1026.52 1026.67 1026.61 1026.29 1025.76 1025.15 1024.30 1023.74 1022.89
1011.24 1012.08 1012.74 1013.73 1014.81 1015.62 1016.35 1017.23 1017.97 1018.63 1018.91 1019.33 1019.95 1020.64 1021.11 1021.53 1021.81 1022.58 1023.82 1025.33 1026.41 1026.82 1026.99 1027.65 1027.14 1026.65 1026.78 1026.68 1026.68 1026.75 1026.83 1026.52 1025.88 1025.33 1024.64 1024.00 1023.42 1022.72
1010.64 1011.43 1011.96 1012.87 1013.78 1014.60 1015.92 1016.87 1017.78 1018.30 1018.70 1019.10 1019.66 1020.11 1020.39 1021.34 1022.28 1022.85 1024.55 1025.70 1026.60 1026.85 1027.19 1027.46 1027.58 1027.31 1027.03 1026.80 1026.91 1026.90 1026.56 1026.33 1025.98 1025.30 1024.53 1023.77 1023.18 1022.39
1009.91 1010.74 1011.37 1012.13 1013.02 1014.03 1014.97 1015.95 1017.08 1017.72 1018.16 1019.02 1019.64 1020.58 1021.09 1021.94 1022.39 1022.83 1023.89 1025.24 1026.25 1027.23 1027.06 1027.43 1027.95 1027.93 1027.56 1026.89 1027.05 1026.94 1026.74 1026.36 1025.81 1025.28 1024.54 1023.67 1022.93 1022.38
1008.99 1009.91 1010.70 1011.54 1012.51 1013.70 1014.05 1014.97 1015.32 1016.42 1017.71 1018.54 1019.77 1020.98 1022.07 1022.48 1022.94 1023.22 1023.69 1024.38 1025.70 1026.45 1026.54 1027.42 1028.34 1028.47 1028.58 1027.82 1027.13 1026.91 1026.81 1026.24 1025.99 1025.29 1024.15 1023.44 1022.74 1022.14
1007.53 1008.62 1009.57 1010.72 1011.88 1012.74 1013.59 1014.32 1015.40 1016.17 1017.44 1018.44 1019.97 1021.18 1022.13 1022.59 1023.10 1023.79 1024.15 1025.23 1025.64 1025.51 1026.59 1027.49 1028.15 1028.54 1028.83 1028.79 1028.50 1027.32 1026.68 1026.25 1026.33 1025.20 1023.99 1023.27 1022.52 1021.59
1006.89 1007.74 1008.94 1009.89 1010.97 1012.17 1013.32 1014.07 1015.16 1015.92 1017.24 1018.41 1019.34 1020.45 1021.21 1022.45 1023.18 1023.84 1025.17 1025.84 1026.13 1026.81 1027.37 1027.53 1027.74 1028.70 1028.76 1028.88 1028.85 1028.51 1027.98 1026.77 1026.43 1025.44 1024.02 1023.59 1023.21 1022.01
1006.81 1007.60 1008.39 1009.66 1010.82 1011.67 1012.95 1013.89 1014.86 1015.61 1016.46 1017.40 1018.92 1020.30 1021.73 1022.22 1023.33 1023.77 1025.26 1025.86 1027.15 1027.79 1027.92 1027.77 1028.16 1028.47 1029.12 1029.05 1029.05 1029.03 1028.67 1028.18 1026.67 1025.69 1024.93 1023.30 1022.63 1021.85
1006.43 1007.61 1008.68 1009.57 1010.58 1011.63 1012.54 1013.61 1014.74 1015.39 1016.21 1017.27 1018.51 1019.91 1021.06 1022.29 1022.97 1024.06 1024.63 1025.85 1027.12 1027.66 1028.16 1028.47 1028.88 1028.75 1029.30 1029.31 1029.33 1029.23 1028.83 1028.10 1026.93 1026.25 1025.56 1024.17 1022.17 1022.02
1005.83 1006.68 1007.42 1008.45 1009.65 1010.50 1011.62 1012.96 1013.82 1014.54 1015.55 1016.52 1017.80 1018.61 1020.51 1021.32 1022.53 1023.96 1024.82 1025.65 1026.48 1027.51 1028.41 1029.19 1029.22 1029.31 1029.34 1029.29 1029.08 1029.20 1028.77 1028.00 1026.99 1026.29 1026.13 1025.48 1023.34 1021.74
1004.70 1005.72 1006.48 1007.41 1008.40 1009.49 1010.52 1011.56 1012.66 1013.73 1014.76 1015.82 1016.97 1018.20 1019.45 1020.80 1022.27 1023.48 1024.80 1025.49 1026.86 1027.79 1028.92 1029.52 1029.43 1029.94 1030.51 1030.42 1029.32 1028.52 1028.77 1028.06 1027.17 1026.23 1025.72 1025.58 1024.40 1022.19
1003.73 1004.67 1005.62 1006.73 1007.66 1008.64 1009.68 1010.60 1011.94 1013.13 1014.04 1015.27 1016.62 1017.59 1019.09 1020.40 1022.05 1022.91 1024.18 1025.39 1026.39 1027.77 1028.92 1029.61 1030.00 1030.54 1030.55 1030.32 1030.05 1028.81 1028.18 1028.11 1027.49 1027.32 1026.31 1024.99 1023.57 1021.91
1002.96 1003.96 1005.02 1005.91 1006.86 1007.83 1008.85 1009.76 1011.07 1012.16 1013.31 1014.66 1015.86 1017.31 1018.81 1020.09 1021.37 1022.52 1023.82 1025.18 1026.47 1027.44 1028.68 1029.31 1029.95 1029.84 1030.96 1031.06 1030.53 1030.05 1028.62 1027.52 1027.20 1026.92 1026.27 1025.44 1024.12 1022.73
1002.24 1003.04 1004.16 1005.16 1005.84 1006.99 1007.87 1009.21 1010.51 1011.79 1012.86 1014.14 1015.32 1016.71 1018.41 1019.55 1020.68 1022.05 1023.36 1024.54 1026.04 1027.25 1028.38 1029.14 1030.51 1030.76 1031.13 1031.44 1031.54 1030.44 1029.40 1028.33 1027.13 1026.39 1026.08 1025.79 1025.44 1024.43
1001.10 1002.61 1002.99 1003.56 1004.88 1006.00 1007.15 1008.53 1009.76 1010.84 1012.03 1013.63 1014.75 1016.46 1017.97 1019.24 1020.24 1021.77 1023.43 1024.48 1025.66 1026.98 1027.87 1029.46 1030.24 1030.78 1031.64 1031.93 1031.32 1030.94 1030.27 1029.08 1027.92 1027.49 1026.31 1025.38 1024.84 1024.34
Thickness
5620 5616 5619 5621 5622 5626 5633 5635 5629 5611 5620 5626 5623 5626 5625 5625 5622 5618 5615 5611 5608 5607 5604 5601 5598 5597 5594 5593 5589 5586 5582 5579 5575 5569 5564 5563 5559 5557
5616 5610 5612 5613 5612 5617 5623 5627 5627 5621 5614 5618 5614 5617 5618 5619 5615 5610 5610 5606 5605 5602 5597 5594 5593 5591 5587 5584 5582 5580 5577 5572 5568 5562 5556 5555 5551 5549
5612 5608 5607 5609 5606 5605 5611 5617 5618 5620 5609 5603 5605 5607 5608 5610 5607 5603 5604 5599 5600 5596 5592 5587 5586 5587 5584 5581 5575 5572 5568 5565 5559 5554 5547 5546 5544 5543
5614 5605 5603 5606 5607 5605 5606 5609 5613 5611 5610 5599 5597 5598 5603 5596 5597 5596 5598 5591 5594 5590 5586 5583 5581 5581 5580 5576 5570 5563 5558 5555 5549 5546 5538 5539 5537 5535
5606 5607 5604 5601 5606 5603 5605 5606 5607 5602 5602 5598 5590 5592 5593 5585 5589 5588 5587 5584 5586 5585 5581 5579 5576 5574 5572 5569 5565 5557 5550 5549 5543 5536 5532 5532 5528 5526
5602 5608 5605 5605 5603 5604 5604 5604 5600 5597 5597 5593 5589 5584 5585 5582 5590 5579 5577 5578 5577 5578 5573 5572 5571 5568 5566 5563 5558 5552 5546 5540 5536 5530 5528 5525 5523 5521
5597 5601 5602 5604 5600 5604 5604 5600 5598 5591 5591 5583 5579 5583 5580 5577 5580 5577 5578 5572 5569 5569 5567 5566 5563 5562 5560 5555 5550 5547 5538 5536 5527 5527 5524 5519 5520 5517
5593 5591 5596 5593 5591 5596 5599 5599 5601 5593 5587 5580 5580 5582 5579 5581 5579 5578 5570 5563 5559 5563 5559 5558 5556 5553 5551 5545 5543 5535 5531 5525 5522 5520 5519 5517 5515 5513
5586 5586 5588 5589 5589 5589 5590 5593 5593 5591 5594 5590 5583 5583 5580 5581 5584 5575 5569 5562 5560 5554 5553 5549 5545 5543 5543 5538 5530 5528 5522 5520 5516 5514 5515 5514 5511 5509
5579 5582 5586 5586 5585 5585 5586 5584 5584 5583 5584 5585 5582 5580 5580 5580 5579 5575 5567 5556 5548 5546 5544 5537 5536 5536 5533 5530 5522 5518 5516 5514 5513 5512 5511 5509 5506 5503
5570 5575 5581 5582 5583 5583 5578 5576 5573 5574 5575 5576 5575 5575 5577 5571 5564 5563 5549 5542 5538 5536 5533 5530 5525 5522 5521 5521 5515 5512 5512 5508 5505 5504 5504 5504 5503 5500
5564 5569 5574 5577 5575 5575 5574 5572 5567 5569 5570 5567 5566 5561 5559 5554 5554 5552 5544 5535 5528 5522 5524 5521 5514 5510 5513 5511 5509 5508 5505 5502 5500 5498 5498 5498 5497 5494
5560 5564 5568 5571 5569 5565 5571 5570 5573 5568 5562 5561 5555 5548 5543 5542 5542 5541 5538 5533 5520 5515 5519 5512 5503 5499 5495 5499 5502 5501 5499 5496 5492 5491 5492 5491 5487 5483
5562 5563 5566 5564 5560 5560 5561 5563 5560 5559 5553 5551 5544 5538 5534 5533 5532 5527 5526 5520 5517 5517 5510 5504 5498 5495 5488 5486 5486 5491 5493 5491 5484 5484 5487 5484 5480 5476
5552 5556 5554 5555 5555 5551 5550 5552 5551 5551 5546 5542 5540 5535 5531 5524 5522 5519 5512 5508 5505 5501 5496 5494 5495 5488 5485 5482 5479 5476 5476 5481 5478 5476 5478 5476 5472 5470
5537 5541 5546 5544 5542 5544 5542 5543 5543 5542 5542 5540 5533 5522 5515 5518 5511 5511 5502 5499 5489 5485 5484 5486 5484 5483 5475 5473 5471 5467 5466 5463 5469 5469 5466 5469 5465 5460
5528 5527 5529 5532 5533 5536 5537 5537 5532 5533 5532 5530 5523 5515 5512 5506 5503 5498 5499 5492 5480 5479 5476 5474 5473 5474 5470 5466 5462 5459 5458 5458 5462 5461 5458 5455 5459 5451
5518 5522 5529 5530 5531 5534 5533 5529 5527 5528 5526 5524 5517 5516 5505 5503 5497 5490 5488 5484 5479 5472 5468 5462 5463 5462 5461 5460 5458 5453 5451 5451 5455 5453 5447 5441 5445 5444
5514 5519 5525 5528 5531 5530 5530 5528 5525 5522 5518 5515 5511 5507 5503 5498 5490 5485 5477 5475 5465 5462 5455 5452 5455 5449 5440 5441 5450 5450 5446 5445 5445 5445 5441 5432 5430 5434
5512 5519 5522 5522 5524 5525 5523 5524 5518 5514 5513 5508 5503 5502 5496 5491 5481 5480 5474 5467 5464 5455 5450 5445 5443 5439 5439 5439 5437 5444 5443 5439 5436 5431 5431 5430 5426 5425
5509 5512 5514 5516 5517 5518 5518 5518 5513 5509 5506 5502 5499 5493 5488 5482 5477 5472 5467 5462 5455 5451 5447 5445 5440 5438 5436 5431 5432 5431 5438 5437 5434 5428 5423 5420 5420 5418
5502 5506 5506 5508 5512 5512 5514 5510 5505 5501 5499 5495 5492 5488 5480 5476 5472 5466 5463 5459 5450 5445 5442 5438 5435 5432 5424 5422 5416 5418 5425 5427 5427 5422 5413 5406 5395 5394
5496 5493 5504 5510 5507 5506 5506 5502 5499 5498 5495 5487 5486 5478 5473 5469 5466 5461 5452 5449 5444 5440 5440 5431 5427 5422 5414 5410 5414 5410 5411 5415 5411 5406 5405 5396 5388 5379